CAPE
0 0 0 0 0 0 0 0 0 0 493 708 193 46 2 41 50 17 0 76 355 1084 1451 1739 1858 2004 1889 1871 2054 2218 2407 2461 2447 2416 2392 2453 2523 2591 2649 2765 2707 2586 2591 2153 1831 1585 1244 1001 858
0 0 0 0 0 0 0 0 0 0 510 775 1153 1155 781 378 1106 142 0 259 576 1061 1329 1525 1760 1943 1966 1951 2146 2309 2614 2666 2618 2611 2636 2669 2716 2730 2716 2709 2665 2619 2690 2234 2254 2016 1375 1014 1017
0 0 0 0 0 0 0 0 0 0 0 176 982 1533 1206 949 898 38 38 285 736 981 1180 1459 1702 1844 1967 2033 2140 2323 2436 2486 2567 2660 2775 2753 2696 2652 2684 2479 2626 2754 2626 2204 2582 2028 1537 1273 1024
0 0 0 0 0 0 0 0 0 0 0 0 1116 1177 1730 977 754 256 179 427 493 728 1004 1561 1689 1832 1966 2137 2213 2206 2153 2134 2367 2577 2728 2747 2681 2518 2542 2384 2648 2809 2697 2317 2338 2140 1730 1422 1333
0 0 0 0 0 0 0 0 0 0 0 0 1645 1572 1750 1169 297 161 288 300 376 548 1036 1387 1625 1857 2073 2287 2254 2038 1886 1965 2261 2524 2607 2668 2658 2523 2332 2201 2335 2389 2118 1939 1714 1444 1226 1037 903
0 0 0 0 0 0 0 0 0 0 0 888 1561 1604 1468 525 232 237 194 227 340 553 862 1258 1601 1815 2047 2186 2021 1756 1722 1923 2173 2324 2398 2440 2235 2076 2034 1934 1818 1625 1447 1285 1041 847 612 340 129
0 0 0 0 0 0 0 0 0 0 0 293 1474 1618 1253 652 94 103 149 265 339 511 701 1033 1428 1628 1670 1718 1656 1600 1722 1951 2064 2120 2027 1817 1640 1626 1705 1559 1369 1174 946 772 548 270 247 245 379
0 0 0 0 0 0 0 0 0 0 0 1210 1240 1310 1334 989 505 275 200 293 436 520 649 846 887 964 951 1071 1291 1493 1699 1800 1842 1729 1490 1308 1210 1233 1193 1074 1003 658 290 211 261 111 0 67 0
0 0 0 0 0 0 0 0 0 0 8 792 1032 1120 995 944 535 259 193 293 400 437 525 377 554 441 594 795 1092 1287 1485 1558 1509 1356 1023 641 423 340 149 307 316 62 14 48 0 0 0 0 0
0 0 0 0 0 0 0 0 0 0 0 170 1186 1310 1239 917 569 257 132 131 281 319 318 514 300 457 627 956 772 826 1147 1068 929 583 366 112 0 0 0 0 2 0 0 0 0 0 0 0 0
0 0 0 0 0 0 0 0 0 0 0 0 127 1083 1019 1111 759 339 216 120 183 193 224 188 214 305 486 631 621 763 774 594 463 269 145 0 0 0 0 0 0 0 0 0 0 0 0 0 0
0 0 0 0 0 0 0 0 0 0 0 0 0 918 1035 1073 1176 792 516 420 195 196 204 163 277 239 162 342 379 351 408 287 329 143 30 0 0 0 0 0 0 0 0 0 0 0 0 0 0
0 0 0 0 0 0 0 0 0 0 0 0 4 1095 1166 1262 1273 1134 987 818 526 325 210 268 188 223 142 163 149 148 27 1 1 33 0 0 0 0 0 0 0 0 0 0 0 0 0 0 0
0 0 0 0 0 0 0 0 0 0 0 0 666 1061 1139 1253 1284 1257 1154 1067 757 543 396 308 192 227 126 143 77 2 0 0 0 0 0 0 0 0 0 0 0 0 0 0 0 0 0 0 0
0 0 0 0 0 0 0 0 0 0 0 0 55 720 1114 1204 1202 1240 1231 1162 901 738 509 265 130 99 97 2 0 0 0 0 0 0 0 0 0 0 0 0 0 0 0 0 0 0 0 0 0
0 0 0 0 0 0 0 0 0 0 0 0 0 53 835 1079 1240 1317 1271 1216 1137 816 494 111 64 43 2 0 0 0 0 0 0 0 0 0 0 0 0 0 0 0 0 0 0 0 0 0 0
0 0 0 0 0 0 0 0 0 0 0 0 0 0 379 898 1257 1302 1270 1232 1306 936 523 102 58 3 0 0 0 0 0 0 0 0 0 0 0 0 0 0 0 0 0 0 0 0 0 0 0
0 0 0 0 0 0 0 0 0 0 0 0 0 0 0 758 1064 1196 1189 1247 1347 1157 796 312 55 0 0 0 0 0 0 0 0 0 0 0 0 0 0 0 0 0 0 0 0 0 0 0 0
0 0 0 0 0 0 0 0 0 0 0 0 0 0 0 2 543 916 994 1031 1145 1281 932 447 3 0 0 0 0 0 0 0 0 0 0 0 0 0 0 0 0 0 0 0 0 0 0 0 0
0 0 0 0 0 0 0 0 0 0 0 0 0 0 0 0 0 289 683 873 1062 1261 966 8 0 0 0 0 0 0 0 0 0 0 0 0 0 0 0 0 0 0 0 0 0 0 0 0 0
0 0 0 0 0 0 0 0 0 0 0 0 0 0 0 0 0 0 115 626 1083 1247 993 38 0 0 0 0 0 0 0 0 1 0 0 0 0 0 0 0 0 0 0 0 0 0 0 0 0
0 0 0 0 0 0 0 0 0 0 0 0 0 0 0 0 0 0 0 184 930 1259 801 0 0 0 0 0 0 0 0 0 0 0 0 0 0 0 0 0 0 0 0 0 0 0 0 0 0
0 0 0 0 0 0 0 0 0 0 0 0 0 0 0 0 0 0 0 0 0 0 0 0 2 1 2 1 0 0 0 0 0 0 0 0 0 0 0 0 0 0 0 0 0 0 0 0 0
0 0 0 0 0 0 0 0 0 0 0 0 0 0 0 0 0 0 0 0 1 1 1 2 3 5 2 0 0 0 0 0 0 0 0 0 0 0 0 0 0 0 0 0 0 0 0 0 0
0 0 0 0 0 0 0 0 0 0 0 0 0 0 0 0 0 0 1 1 1 1 1 1 2 5 4 2 1 0 0 0 0 0 0 0 0 0 0 0 0 0 0 0 0 0 0 0 0
0 0 0 0 0 0 0 0 0 0 0 0 0 0 0 0 0 0 0 1 2 2 1 0 0 1 1 0 1 0 0 0 0 0 0 0 0 0 0 0 0 0 0 0 0 0 0 0 0
0 0 0 0 0 0 0 0 0 0 0 0 0 0 0 0 0 0 0 0 0 0 0 0 0 0 1 0 0 0 0 0 0 0 0 0 0 0 0 0 0 0 0 0 0 0 0 0 0
0 0 0 1 6 12 0 0 0 0 0 0 0 0 0 0 0 0 0 0 0 0 0 0 0 0 0 0 0 0 0 0 0 0 0 0 0 0 0 0 0 0 0 0 0 0 0 0 0
0 0 0 0 0 1 1 0 0 0 0 0 0 0 0 0 0 0 0 0 0 0 0 0 0 0 0 0 0 0 0 0 0 0 0 0 0 0 0 0 0 0 0 0 0 0 0 0 0
0 0 0 0 0 0 0 0 0 0 0 0 0 0 0 0 0 0 0 0 0 0 0 0 0 0 0 0 0 0 0 0 0 0 0 0 0 0 0 0 0 0 0 0 0 0 0 0 0
CIN
-0 -0 -0 -0 -0 -0 -0 -0 -0 -0 -252 -315 -383 -476 -134 -117 -307 -199 -0 -1003 -868 -598 -433 -320 -235 -171 -162 -186 -149 -120 -102 -90 -77 -62 -44 -19 -0 -0 -0 -0 -0 -0 -0 -0 -0 -3 -21 -32 -40
-0 -0 -0 -0 -0 -0 -0 -0 -0 -0 -154 -207 -167 -192 -207 -204 -449 -793 -0 -864 -743 -570 -435 -355 -259 -178 -164 -189 -141 -102 -66 -53 -51 -38 -17 -3 -0 -0 -0 -0 -0 -0 -0 -3 -0 -0 -29 -53 -47
-0 -0 -0 -0 -0 -0 -0 -0 -0 -0 -0 -277 -148 -219 -230 -230 -505 -748 -947 -818 -657 -564 -503 -396 -288 -203 -182 -186 -147 -102 -81 -60 -40 -19 -2 -2 -0 -0 -0 -4 -0 -0 -0 -10 -1 -14 -29 -34 -49
-0 -0 -0 -0 -0 -0 -0 -0 -0 -0 -0 -0 -232 -156 -283 -467 -536 -758 -853 -733 -699 -612 -543 -374 -295 -240 -196 -171 -142 -110 -117 -104 -55 -23 -10 -9 -10 -12 -7 -8 -0 -0 -0 -13 -17 -19 -33 -44 -32
-0 -0 -0 -0 -0 -0 -0 -0 -0 -0 -0 -0 -212 -183 -266 -502 -771 -840 -792 -755 -735 -651 -516 -407 -317 -250 -191 -142 -121 -133 -150 -124 -75 -41 -33 -23 -20 -16 -21 -15 -5 -0 -2 -17 -56 -86 -103 -114 -118
-0 -0 -0 -0 -0 -0 -0 -0 -0 -0 -0 -212 -181 -223 -289 -652 -780 -786 -793 -790 -738 -662 -535 -404 -296 -245 -189 -162 -165 -180 -177 -129 -88 -63 -46 -34 -51 -44 -44 -27 -34 -45 -68 -101 -145 -154 -192 -248 -297
-0 -0 -0 -0 -0 -0 -0 -0 -0 -0 -0 -204 -173 -140 -352 -546 -754 -818 -800 -754 -690 -618 -533 -425 -322 -272 -243 -225 -211 -195 -172 -129 -100 -81 -86 -96 -109 -106 -84 -74 -83 -116 -165 -190 -243 -316 -313 -286 -216
-0 -0 -0 -0 -0 -0 -0 -0 -0 -0 -0 -139 -154 -84 -149 -445 -575 -648 -702 -660 -584 -540 -489 -418 -406 -371 -366 -316 -249 -210 -150 -127 -112 -124 -159 -171 -173 -157 -135 -161 -141 -197 -301 -336 -320 -386 -0 -361 -433
-0 -0 -0 -0 -0 -0 -0 -0 -0 -0 -120 -115 -144 -178 -269 -429 -501 -575 -599 -569 -526 -498 -475 -508 -443 -486 -422 -351 -269 -232 -176 -151 -130 -142 -214 -254 -317 -345 -421 -322 -302 -283 -305 -281 -0 -0 -0 -0 -0
-0 -0 -0 -0 -0 -0 -0 -0 -0 -0 -0 -176 -129 -284 -326 -392 -449 -530 -629 -625 -556 -520 -509 -441 -506 -448 -402 -290 -326 -307 -221 -228 -230 -295 -337 -442 -0 -0 -0 -0 -88 -0 -0 -0 -0 -0 -0 -0 -0
-0 -0 -0 -0 -0 -0 -0 -0 -0 -0 -0 -0 -196 -250 -319 -315 -373 -457 -521 -602 -573 -552 -511 -521 -495 -467 -419 -356 -330 -286 -281 -315 -334 -406 -460 -0 -0 -0 -0 -0 -0 -0 -0 -0 -0 -0 -0 -0 -0
-0 -0 -0 -0 -0 -0 -0 -0 -0 -0 -0 -0 -0 -259 -294 -312 -303 -389 -425 -442 -490 -493 -483 -523 -439 -444 -489 -413 -348 -339 -322 -375 -339 -417 -523 -0 -0 -0 -0 -0 -0 -0 -0 -0 -0 -0 -0 -0 -0
-0 -0 -0 -0 -0 -0 -0 -0 -0 -0 -0 -0 -7 -225 -230 -267 -287 -297 -316 -315 -358 -420 -468 -444 -468 -427 -493 -449 -433 -409 -283 -0 -0 -399 -0 -0 -0 -0 -0 -0 -0 -0 -0 -0 -0 -0 -0 -0 -0
-0 -0 -0 -0 -0 -0 -0 -0 -0 -0 -0 -0 -217 -219 -228 -224 -282 -242 -251 -272 -333 -359 -391 -406 -422 -404 -521 -459 -505 -78 -0 -0 -0 -0 -0 -0 -0 -0 -0 -0 -0 -0 -0 -0 -0 -0 -0 -0 -0
-0 -0 -0 -0 -0 -0 -0 -0 -0 -0 -0 -0 -27 -176 -182 -222 -212 -264 -300 -289 -333 -337 -359 -421 -491 -456 -455 -45 -0 -0 -0 -0 -0 -0 -0 -0 -0 -0 -0 -0 -0 -0 -0 -0 -0 -0 -0 -0 -0
-0 -0 -0 -0 -0 -0 -0 -0 -0 -0 -0 -0 -0 -78 -191 -192 -228 -278 -267 -258 -253 -284 -346 -433 -406 -483 -89 -0 -0 -0 -0 -0 -0 -0 -0 -0 -0 -0 -0 -0 -0 -0 -0 -0 -0 -0 -0 -0 -0
-0 -0 -0 -0 -0 -0 -0 -0 -0 -0 -0 -0 -0 -0 -248 -199 -188 -203 -206 -232 -198 -259 -305 -385 -419 -132 -0 -0 -0 -0 -0 -0 -0 -0 -0 -0 -0 -0 -0 -0 -0 -0 -0 -0 -0 -0 -0 -0 -0
-0 -0 -0 -0 -0 -0 -0 -0 -0 -0 -0 -0 -0 -0 -0 -203 -247 -253 -255 -249 -197 -215 -257 -343 -307 -0 -0 -0 -0 -0 -0 -0 -0 -0 -0 -0 -0 -0 -0 -0 -0 -0 -0 -0 -0 -0 -0 -0 -0
-0 -0 -0 -0 -0 -0 -0 -0 -0 -0 -0 -0 -0 -0 -0 -475 -278 -221 -213 -234 -186 -163 -209 -324 -448 -0 -0 -0 -0 -0 -0 -0 -0 -0 -0 -0 -0 -0 -0 -0 -0 -0 -0 -0 -0 -0 -0 -0 -0
-0 -0 -0 -0 -0 -0 -0 -0 -0 -0 -0 -0 -0 -0 -0 -0 -0 -331 -287 -281 -258 -181 -194 -118 -0 -0 -0 -0 -0 -0 -0 -0 -0 -0 -0 -0 -0 -0 -0 -0 -0 -0 -0 -0 -0 -0 -0 -0 -0
-0 -0 -0 -0 -0 -0 -0 -0 -0 -0 -0 -0 -0 -0 -0 -0 -0 -0 -367 -384 -281 -226 -211 -465 -0 -0 -0 -0 -0 -0 -0 -0 -0 -0 -0 -0 -0 -0 -0 -0 -0 -0 -0 -0 -0 -0 -0 -0 -0
-0 -0 -0 -0 -0 -0 -0 -0 -0 -0 -0 -0 -0 -0 -0 -0 -0 -0 -0 -436 -300 -191 -208 -0 -0 -0 -0 -0 -0 -0 -0 -0 -0 -0 -0 -0 -0 -0 -0 -0 -0 -0 -0 -0 -0 -0 -0 -0 -0
-0 -0 -0 -0 -0 -0 -0 -0 -0 -0 -0 -0 -0 -0 -0 -0 -0 -0 -0 -0 -0 -0 -0 -0 -0 -0 -0 -0 -0 -0 -0 -0 -0 -0 -0 -0 -0 -0 -0 -0 -0 -0 -0 -0 -0 -0 -0 -0 -0
-0 -0 -0 -0 -0 -0 -0 -0 -0 -0 -0 -0 -0 -0 -0 -0 -0 -0 -0 -0 -0 -0 -0 -0 -0 -0 -0 -0 -0 -0 -0 -0 -0 -0 -0 -0 -0 -0 -0 -0 -0 -0 -0 -0 -0 -0 -0 -0 -0
-0 -0 -0 -0 -0 -0 -0 -0 -0 -0 -0 -0 -0 -0 -0 -0 -0 -0 -0 -0 -0 -0 -0 -0 -0 -0 -0 -0 -0 -0 -0 -0 -0 -0 -0 -0 -0 -0 -0 -0 -0 -0 -0 -0 -0 -0 -0 -0 -0
-0 -0 -0 -1 -0 -0 -0 -0 -0 -0 -0 -0 -0 -0 -0 -0 -0 -0 -0 -0 -0 -0 -0 -0 -0 -0 -0 -0 -0 -0 -0 -0 -0 -0 -0 -0 -0 -0 -0 -0 -0 -0 -0 -0 -0 -0 -0 -0 -0
-0 -0 -0 -0 -0 -0 -0 -0 -0 -0 -0 -0 -0 -0 -0 -0 -0 -0 -0 -0 -0 -0 -0 -0 -0 -0 -0 -0 -0 -0 -0 -0 -0 -0 -0 -0 -0 -0 -0 -0 -0 -0 -0 -0 -0 -0 -0 -0 -0
-0 -0 -0 -0 -1 -2 -7 -0 -0 -0 -0 -0 -0 -0 -0 -0 -0 -0 -0 -0 -0 -0 -0 -0 -0 -0 -0 -0 -0 -0 -0 -0 -0 -0 -0 -0 -0 -0 -0 -0 -0 -0 -0 -0 -0 -0 -0 -0 -0
-0 -2 -0 -0 -0 -4 -8 -0 -0 -0 -0 -0 -0 -0 -0 -0 -0 -0 -0 -0 -0 -0 -0 -0 -0 -0 -0 -0 -0 -0 -0 -0 -0 -0 -0 -0 -0 -0 -0 -0 -0 -0 -0 -0 -0 -0 -0 -0 -0
-0 -0 -0 -0 -1 -0 -0 -0 -0 -0 -0 -0 -0 -0 -0 -0 -0 -0 -0 -0 -0 -0 -0 -0 -0 -0 -0 -0 -0 -0 -0 -0 -0 -0 -0 -0 -0 -0 -0 -0 -0 -0 -0 -0 -0 -0 -0 -0 -0
Wind_Speed
2 3 3 5 5 6 3 5 2 8 6 4 3 3 7 2 7 7 3 5 14 13 11 11 12 13 13 16 15 16 18 18 17 17 16 16 15 14 13 12 11 12 13 14 13 12 12 12 10
1 3 5 3 6 3 6 5 5 1 3 3 3 2 3 3 1 4 5 5 12 13 10 10 13 12 13 14 14 14 16 17 17 17 17 16 15 14 13 12 11 12 12 13 13 12 11 10 9
3 4 4 5 4 4 5 4 3 7 9 5 2 1 3 3 2 7 6 11 12 12 11 11 15 13 14 14 14 13 15 15 15 16 16 16 15 15 13 11 11 11 11 11 13 13 11 9 8
2 5 5 5 5 7 5 6 4 8 9 4 4 4 0 3 5 6 12 14 12 10 9 12 14 15 15 15 15 13 14 14 14 14 15 15 15 14 12 10 10 9 12 11 13 12 10 8 7
5 4 4 3 5 5 5 5 4 6 5 6 3 4 2 3 6 13 12 11 12 8 8 11 14 15 15 15 14 14 14 14 14 14 14 15 15 14 11 10 10 10 10 10 11 10 8 7 6
5 4 4 3 5 5 5 5 1 3 6 5 2 1 1 5 8 8 9 7 7 11 9 9 13 14 14 14 14 14 14 14 13 13 13 13 14 13 12 10 10 10 9 9 10 9 8 7 6
6 4 3 3 5 5 4 1 1 2 5 2 2 1 5 1 5 10 7 8 7 6 8 7 8 11 13 14 13 12 13 14 14 13 14 13 12 12 12 11 10 9 9 9 9 9 9 9 10
6 5 2 4 3 8 3 6 2 2 4 3 6 4 6 3 7 8 8 7 7 6 5 6 5 6 8 9 13 13 12 12 12 14 14 13 13 12 11 11 10 10 9 8 9 10 11 11 11
3 4 3 5 5 6 3 9 2 3 3 3 4 3 3 14 12 9 9 5 7 5 6 8 7 5 7 8 11 15 14 14 12 11 14 9 4 6 7 8 11 10 10 10 10 11 10 10 10
4 4 9 7 5 5 7 2 7 3 4 4 2 3 9 15 14 13 14 12 11 10 8 9 10 10 9 7 10 10 11 9 7 7 7 5 5 5 7 8 12 11 11 10 10 11 10 8 4
3 6 4 4 8 5 3 8 3 5 4 6 7 6 13 12 13 12 11 12 12 10 8 11 12 11 7 7 5 4 4 5 5 7 6 7 5 4 4 4 4 4 7 3 5 5 4 6 4
3 6 4 7 3 6 5 6 8 7 10 3 5 8 14 18 18 16 14 12 12 11 14 12 8 9 4 4 5 5 5 3 4 4 7 6 4 4 4 3 4 4 2 4 4 3 5 6 6
6 5 4 8 12 9 6 11 8 13 12 9 5 11 15 16 15 12 12 12 13 14 16 11 8 8 6 6 4 3 2 3 4 4 5 5 5 5 4 4 4 3 3 4 4 4 4 5 5
1 4 10 8 9 7 11 9 5 11 8 8 11 15 16 17 20 11 13 14 15 16 14 11 12 12 8 6 6 5 4 4 4 3 5 6 5 5 4 4 4 3 3 3 4 4 4 4 4
4 6 6 8 7 7 3 5 9 13 6 7 9 11 15 19 14 20 20 19 18 15 14 14 13 10 10 7 7 6 4 4 4 4 5 6 5 6 6 5 4 3 3 5 4 5 4 4 4
6 3 3 5 4 7 5 8 14 4 4 11 9 13 13 15 21 21 17 16 15 14 15 12 10 11 10 8 6 6 5 4 4 4 5 6 7 7 6 5 4 5 4 4 4 3 4 4 4
3 7 5 5 5 4 3 5 11 21 5 12 9 9 9 12 16 14 14 15 16 16 15 14 14 12 10 7 5 6 7 5 4 4 5 7 6 6 6 5 5 5 4 4 4 3 3 3 4
9 6 5 5 3 3 9 16 10 17 5 12 11 7 8 11 20 18 17 15 16 16 16 16 13 16 14 10 7 5 4 3 3 4 4 6 5 6 6 5 5 5 5 4 3 4 4 3 4
4 4 5 4 8 5 11 14 13 15 9 13 8 6 7 10 5 8 9 12 14 16 17 18 17 16 13 10 9 6 5 3 3 2 5 5 5 5 5 4 5 4 5 5 6 4 5 3 2
13 11 10 5 10 5 9 16 15 16 14 6 1 2 3 4 4 8 11 14 17 17 15 15 16 16 12 9 4 5 6 3 4 3 4 5 6 6 5 5 4 4 4 4 3 3 3 3 3
13 14 6 9 5 6 8 10 7 8 5 6 1 1 2 7 6 8 9 17 16 20 19 15 15 16 12 9 9 8 7 5 3 2 2 3 5 5 6 6 5 4 3 3 2 3 4 4 3
18 9 11 6 2 4 3 11 4 5 9 2 6 9 9 8 8 8 10 13 16 12 11 14 14 15 11 12 9 14 8 7 3 3 2 4 4 5 6 7 5 5 3 4 3 3 3 3 3
7 7 8 7 5 3 6 5 6 1 7 4 4 6 8 8 8 8 2 7 10 8 8 8 11 11 12 9 11 8 9 6 6 6 7 5 4 5 5 5 6 5 3 3 4 4 4 3 4
4 3 1 1 2 9 9 9 10 8 5 5 2 4 4 4 8 13 14 16 14 14 13 11 11 10 10 9 8 9 11 9 8 8 7 3 3 3 4 4 5 5 5 4 3 3 5 4 4
5 6 3 2 5 11 11 10 16 0 2 4 5 3 1 4 7 10 13 14 14 15 15 13 13 12 11 9 6 6 8 7 9 9 7 8 4 2 4 3 3 4 5 5 4 5 5 4 4
7 8 7 6 5 4 2 9 6 3 4 4 2 4 3 4 7 10 13 12 13 14 14 14 14 13 8 7 5 0 4 5 4 5 5 7 7 6 5 3 3 5 5 4 5 4 4 5 4
11 14 11 5 1 3 6 5 2 2 2 2 2 3 1 2 3 5 11 16 15 15 16 16 13 11 11 11 9 7 7 6 6 8 9 8 8 7 7 7 5 5 6 4 5 4 5 5 4
18 7 4 5 8 9 4 6 7 4 6 4 3 4 2 2 4 3 5 7 6 12 11 11 14 15 13 11 8 8 7 6 6 6 5 7 7 8 7 8 5 5 6 5 5 5 4 6 3
5 16 2 2 5 7 3 8 4 12 10 9 6 5 5 4 5 6 5 5 5 4 5 5 5 8 8 8 7 8 6 7 7 6 7 9 8 8 7 7 6 5 6 5 5 5 5 7 6
2 12 15 7 8 4 1 7 5 7 8 8 6 5 3 7 7 7 6 6 5 6 6 6 5 7 8 8 9 9 8 9 9 6 7 10 10 8 8 8 8 7 5 4 5 5 5 6 6
Wind_Direction
349 95 106 37 49 62 281 263 254 342 9 308 93 135 209 225 176 207 10 96 121 131 141 139 141 148 143 133 132 134 133 129 125 123 123 122 124 121 120 118 115 112 109 104 97 89 87 84 82
72 124 47 79 84 56 272 255 188 256 233 259 239 129 334 251 166 102 115 130 132 133 138 139 145 150 142 132 132 134 133 132 131 131 130 127 126 124 124 125 119 118 116 111 105 93 86 81 76
147 49 83 90 108 184 218 226 215 283 279 227 227 155 177 258 306 160 138 136 136 135 140 153 153 151 146 139 136 137 133 132 130 129 130 129 127 126 123 119 123 120 117 117 114 97 83 72 66
69 12 38 89 225 255 213 286 297 318 302 229 170 205 194 174 183 164 142 143 133 133 134 147 152 152 151 144 142 140 134 131 130 132 133 131 130 128 121 121 117 120 112 106 93 93 89 78 61
36 53 47 29 261 264 248 254 291 305 271 288 143 227 179 65 92 126 137 142 137 132 131 147 153 150 150 145 140 139 138 136 136 137 136 133 128 126 119 113 101 91 94 94 95 95 92 86 85
43 100 53 262 250 257 271 242 225 292 319 325 40 60 260 106 124 142 134 124 138 138 138 144 152 148 145 143 142 144 141 141 140 135 128 124 121 120 116 116 109 110 110 108 103 99 96 88 75
115 85 223 263 275 295 232 224 52 329 313 307 100 179 320 103 127 135 117 108 108 118 131 144 154 151 143 141 143 144 145 144 140 133 128 125 123 122 123 121 121 121 116 110 106 98 93 84 58
110 98 160 253 253 281 274 335 259 13 285 169 157 236 259 171 114 98 104 107 115 118 132 145 134 138 139 144 143 143 142 138 139 136 134 133 129 126 127 123 120 112 102 106 98 93 84 76 72
125 65 210 242 181 253 330 347 222 221 205 209 215 207 188 131 124 124 125 122 141 149 152 161 155 136 137 143 151 147 141 142 137 133 132 119 115 111 112 117 111 103 94 95 96 90 87 82 68
102 150 222 212 202 257 310 306 321 318 257 213 218 338 134 141 154 171 172 171 172 176 174 173 171 164 151 153 154 154 152 152 142 136 133 113 111 118 108 103 110 100 92 83 78 76 70 65 59
176 219 225 254 242 250 261 310 248 276 269 210 209 181 169 167 171 184 192 183 178 173 172 189 179 173 156 150 154 154 144 145 138 139 134 123 115 104 98 94 91 89 91 72 70 62 56 61 61
299 246 229 296 317 346 313 273 295 245 257 244 258 186 172 178 188 192 190 182 182 184 189 182 172 172 141 137 158 173 169 131 137 134 127 126 119 119 117 109 110 105 98 91 78 79 77 72 80
212 272 279 274 294 280 256 247 240 269 267 272 200 167 191 190 196 191 183 180 185 194 197 182 164 175 152 145 144 150 146 141 130 127 130 131 133 138 133 128 122 118 118 96 91 86 77 70 66
226 273 287 288 272 253 262 265 172 253 260 237 171 190 196 196 196 175 184 186 187 193 193 179 178 193 158 163 158 141 133 137 128 132 140 138 138 138 130 120 109 90 82 81 91 77 71 65 63
277 302 291 249 264 253 207 302 237 243 1 279 224 215 207 207 185 197 193 191 188 191 184 185 181 172 170 155 141 133 136 135 131 128 124 134 133 132 128 122 109 99 84 94 80 65 68 55 50
342 298 274 297 337 260 171 272 266 337 277 283 251 232 208 207 202 204 192 195 189 183 186 184 184 167 156 149 138 138 136 129 126 134 138 144 137 137 134 131 130 134 111 109 96 89 73 68 65
273 260 219 302 247 245 186 285 291 310 317 290 292 254 216 212 214 213 199 188 188 186 181 172 177 159 137 129 132 138 135 135 146 134 137 142 141 145 138 137 141 134 122 121 126 80 103 93 93
205 226 236 222 253 326 303 283 284 287 283 276 281 275 231 211 220 207 198 186 184 187 182 171 165 157 158 154 135 114 117 114 128 138 144 142 144 144 130 118 126 129 123 119 92 96 62 90 92
154 215 234 247 277 297 265 270 270 278 289 278 304 291 258 227 252 210 185 180 190 193 183 178 164 163 159 160 151 142 151 141 98 130 129 127 116 111 114 114 126 135 133 142 131 105 109 84 114
242 261 264 267 250 230 266 274 266 264 264 239 210 343 318 281 263 229 192 189 194 192 189 180 176 158 167 166 146 124 125 88 69 37 60 73 100 109 108 110 105 102 106 107 110 114 115 78 8
231 235 236 256 318 281 271 278 245 259 209 158 42 247 289 313 301 271 219 199 194 194 189 178 174 170 163 135 120 110 91 85 100 61 65 50 109 114 117 104 107 92 82 117 115 130 141 139 50
248 193 241 259 290 242 30 293 203 230 256 144 4 2 344 344 313 262 247 218 208 198 180 167 163 156 149 148 139 153 148 149 146 122 114 105 99 107 117 122 126 122 127 124 130 133 136 121 138
236 172 197 222 231 275 176 269 279 337 239 185 1 355 349 348 4 4 341 69 58 77 111 124 133 131 136 133 142 138 119 101 117 126 122 114 109 119 118 127 127 114 109 105 118 131 133 130 141
143 151 219 28 171 259 190 191 258 224 221 130 127 20 349 20 56 66 72 73 68 64 71 79 83 90 95 100 106 112 114 134 135 146 132 135 107 100 99 108 117 112 104 97 93 82 79 84 86
129 111 261 286 196 245 189 206 255 262 181 152 179 157 135 104 91 87 87 90 94 97 97 96 92 82 78 63 78 123 139 155 156 154 155 141 132 143 116 123 133 121 124 129 118 95 79 74 87
188 165 168 226 217 276 294 235 250 114 114 95 115 142 171 146 132 121 118 113 111 109 109 112 114 123 124 129 148 209 143 168 129 184 181 145 156 146 138 115 107 110 114 117 109 101 93 85 89
207 222 204 286 248 320 243 310 315 94 65 83 116 87 355 350 29 118 129 131 133 148 150 144 141 146 166 172 169 160 166 182 192 157 199 160 132 140 141 135 142 124 112 110 103 101 97 101 94
213 152 145 182 221 231 247 263 240 172 189 177 141 128 108 70 93 115 138 150 133 148 152 157 161 160 172 167 171 182 170 193 136 165 189 124 128 117 134 125 133 130 117 120 115 101 97 105 93
144 217 242 155 201 221 239 251 228 185 177 174 168 153 152 170 174 193 180 148 125 102 125 167 169 133 130 134 143 155 144 131 135 165 142 127 124 124 136 122 123 116 110 111 104 106 112 99 89
217 211 192 193 203 216 173 267 316 159 158 141 167 203 188 207 209 212 205 175 152 160 162 169 153 148 156 152 143 147 164 153 143 168 146 135 131 134 136 123 118 122 118 113 118 116 109 105 101